SBIRS GEO-2 (USA 241)

Last updated on Tue Sep 22 2026 00:03:12 GMT+0000 (Coordinated Universal Time)

1 39120U 13011A 26264.51076708 -.00000146 00000+0 00000+0 0 9995 2 39120 4.6956 52.4395 0002467 144.6800 250.3558 1.00273142 49503
UTC large
Height (km)
Speed (km/s)
/
Latitude / Longitude
Inclination (degrees)
Orbital Period (minutes)
Azimuth
Elevation
Range (km)
Doppler Factor

Next 0 passes for location: London (51.5072 / 0.1276)

No passes found over London.
SBIRS GEO-2 (USA 241)